www.pogodaiklimat.ru

Погода и климат >> Архив погоды >> Россия >> Ивановская область >> Иваново


АРХИВ ПОГОДЫ в Иванове

Время (UTC), дата Ветер
(напр.,м/с)
 
Видим.   Явления Облачность Т
(С)
Тd
(С)
f
(%)
Тe
(С)
Тes
(С)
Комфортность P
(гПа)
Po
(гПа)
Тmin
(С)
Tmax
(С)
R
(мм)
R24
(мм)
S
(см)
21 8.07 штиль 0 10 км 8/0
[Ac trans Ci fib]
+15.9 +14.4 91 +16 +16 по сезону 1002.9 988.2
00 9.07 З 1 1000 м дымка 10/8 240 м
[Sc diur, vesp Ac trans]
+13.9 +13.0 94 +14 +14 по сезону 1002.9 988.1
03 9.07 СЗ 1 1000 м дымка {туман} 10/10 90 м
[St]
+14.4 +13.6 95 +15 +15 по сезону 1003.5 988.7 +13.8
06 9.07 З 2 10 км {туман} 10/8 330 м
[Cb calv Ac trans]
+17.5 +14.5 83 +18 +19 по сезону 1004.0 989.4
09 9.07 СЗ 2 10 км 8/8 600 м
[Cu med, cong]
+23.1 +15.0 60 +27 +30 душно 1003.6 989.3
12 9.07 СЗ 6 10 км 8/6 600 м
[Cb calv Ac trans]
+23.4 +14.6 58 +27 +29 душно 1004.6 990.2
15 9.07 СЗ 5
{12}
10 км {гроза, ливн. осадки} 8/4 600 м
[Cu med, cong Ac trans Ci fib]
+20.7 +14.9 69 +24 +24 комфорт 1005.7 991.3 +23.9 0.8
18 9.07 СЗ 2 10 км {гроза, ливн. осадки} 9/3 600 м
[Cu med, cong Ac trans Ci fib]
+17.1 +14.2 83 +17 +17 по сезону 1007.7 993.0
21 9.07 СЗ 2 10 км 8/0
[Ac trans Ci fib]
+14.9 +13.9 94 +15 +15 по сезону 1008.0 993.2
00 10.07 СЗ 2 4000 м дымка 10/10 240 м
[St]
+16.6 +15.6 94 +17 +17 тепло 1009.1 994.4
03 10.07 СЗ 2 10 км {ливн. осадки} 10/10 360 м
[Cb cap]
+17.7 +16.2 91 +18 +18 тепло 1009.7 995.0 +14.7 0.0
06 10.07 СЗ 3 10 км {ливн. осадки} 9/9 540 м
[Cb calv]
+19.9 +16.2 79 +23 +23 комфорт 1010.9 996.3
09 10.07 С 4 10 км {ливн. осадки} 10/6 700 м
[Cb calv Ac trans]
+21.2 +15.7 71 +24 +26 комфорт 1011.4 996.9
12 10.07 С 4 10 км {ливн. осадки} 9/5 750 м
[Cb calv Ci fib]
+22.4 +15.7 66 +26 +30 жарко 1011.7 997.2
15 10.07 СЗ 4 10 км 8/5 800 м
[Sc diur, vesp Ac trans]
+20.5 +15.6 73 +23 +24 комфорт 1012.3 997.7 +22.8 0.5
18 10.07 СЗ 2 10 км 8/4 600 м
[Sc diur, vesp Ac trans]
+17.6 +15.9 90 +18 +18 по сезону 1013.2 998.5
21 10.07 СЗ 2 10 км слабый ливневой дождь 10/5 420 м
[Cb calv Ac trans]
+17.7 +16.4 92 +18 +18 тепло 1013.3 998.6
00 11.07 С 1 10 км {ливн. осадки} 10/10 270 м
[Sc]
+18.0 +16.8 93 +19 +19 тепло 1013.3 998.6
03 11.07 СВ 2 10 км слабый ливневой дождь 10/10 360 м
[Cb calv]
+17.9 +16.2 90 +18 +18 тепло 1014.0 999.3 +17.2 0.8
06 11.07 С 3 10 км {ливн. осадки} 9/4 300 м
[Sc Ac trans]
+20.8 +16.8 78 +25 +27 комфорт 1014.4 999.8
09 11.07 С 2 10 км 8/8 800 м
[Cu med, cong Ac trans]
+23.3 +15.3 61 +28 +31 душно 1014.2 999.7
12 11.07 СВ 3 10 км 6/4 600 м
[Cu med, cong Ac trans Ci fib]
+24.2 +12.5 48 +26 +31 жарко 1014.1 999.6
15 11.07 СВ 2 10 км 6/3 600 м
[Cu med, cong Ac trans Ci fib]
+24.5 +11.1 43 +26 +27 жарко 1014.1 999.6 +26.4 0.3
18 11.07 СВ 2 10 км 9/1 600 м
[Cu med, cong Ac trans]
+21.5 +12.8 58 +24 +24 комфорт 1014.9 1000.3
21 11.07 СЗ 1 10 км 9/0
[Ac trans]
+17.0 +13.7 81 +18 +18 тепло 1015.4 1000.6
00 12.07 СЗ 1 10 км 5/0
[Ac trans]
+14.6 +13.4 93 +15 +15 по сезону 1015.2 1000.3
03 12.07 СЗ 1 10 км 1/0
[Ac trans]
+16.8 +14.0 84 +18 +20 тепло 1015.5 1000.6 +13.4
06 12.07 СВ 1 10 км 6/0
[Ac trans Ci fib]
+21.7 +11.5 52 +24 +31 комфорт 1014.9 1000.3
09 12.07 СЗ 3 10 км 10/6 1000 м
[Cu hum Ac und]
+22.2 +12.1 53 +25 +26 комфорт 1014.2 999.6
12 12.07 З 4 10 км 8/6 1000 м
[Cb cap Ac As]
+24.4 +15.5 58 +27 +29 жарко 1013.1 998.7
15 12.07 С 3 10 км в посл. час гроза {ливн. осадки} 8/6 1000 м
[Cb cap Ac As]
+21.4 +15.1 67 +25 +25 комфорт 1013.0 998.4 +24.5 5
18 12.07 С 3 10 км {гроза, ливн. осадки} 6/3 1000 м
[Cu hum Ac trans]
+18.9 +15.6 81 +20 +20 тепло 1013.1 998.4
21 12.07 СЗ 1 10 км 6/0
[Ac trans Ci fib]
+15.3 +14.3 94 +16 +16 по сезону 1013.1 998.2
00 13.07 СЗ 2 2000 м дымка 5/0
[Ac trans Ci fib]
+15.8 +14.9 94 +16 +16 тепло 1012.7 997.9
03 13.07 СЗ 2 4000 м дымка {туман} 10/10 180 м
[St]
+16.5 +15.6 94 +17 +17 по сезону 1012.3 997.5 +14.5 0.3
06 13.07 С 1 10 км в посл. час ливневой дождь {туман} 9/9 600 м
[Cb cap]
+20.9 +15.4 71 +25 +26 комфорт 1011.9 997.3
09 13.07 СЗ 2 10 км 9/8 600 м
[Cb cap Ac trans]
+20.9 +15.8 73 +25 +27 комфорт 1011.5 996.9
12 13.07 СЗ 2 10 км 8/4 600 м
[Cu hum Ac trans Ci fib]
+23.8 +15.7 60 +27 +31 жарко 1010.6 996.2
15 13.07 С 3 10 км 8/4 600 м
[Cu med, cong Ac trans]
+23.7 +15.4 60 +27 +28 жарко 1009.7 995.3 +24.9 0.0
18 13.07 С 1 10 км 6/3 1000 м
[Cu hum Ac trans]
+19.1 +16.4 84 +22 +22 комфорт 1010.4 995.8
21 13.07 ЮВ 1 10 км местами туман поземный 5/0
[Ac trans]
+14.7 +13.7 94 +15 +15 по сезону 1010.4 995.6
00 14.07 СЗ 1 4000 м дымка 9/0
[Ac trans]
+15.3 +14.4 94 +16 +16 тепло 1010.6 995.8
03 14.07 штиль 0 10 км 10/0
[Ac und]
+17.7 +16.4 92 +18 +18 тепло 1010.2 995.5 +14.7
06 14.07 В 1 10 км 9/4 600 м
[Cu med, cong Ac trans]
+22.5 +16.3 68 +27 +30 душно 1009.8 995.4
09 14.07 СЗ 2 10 км гроза, ливневой дождь 10/6 500 м
[Cb cap Ac trans]
+20.6 +18.0 85 +25 +27 комфорт 1009.9 995.4
12 14.07 ЮВ 1 10 км в посл. час гроза {ливн. осадки} 8/3 600 м
[Cu hum Ci fib]
+23.9 +18.0 70 +28 +36 душно 1008.9 994.5
15 14.07 ЮЗ 1 10 км 3/3 1000 м
[Cu hum]
+24.8 +14.5 53 +27 +30 жарко 1008.2 993.9 +25.2 2
18 14.07 штиль 0 10 км 3/3 1000 м
[Sc]
+19.7 +16.9 84 +22 +22 комфорт 1009.0 994.5
21 14.07 В 1 10 км 3/0
[Ac trans]
+17.0 +14.9 87 +18 +18 тепло 1009.3 994.6
00 15.07 СЗ 1 10 км местами туман поземный ясно +14.1 +13.1 94 +14 +14 по сезону 1009.8 994.9
03 15.07 В 1 10 км ясно +19.0 +16.5 85 +22 +23 комфорт 1010.0 995.4 +13.7
06 15.07 В 2 10 км 3/0
[Ac trans]
+24.3 +17.3 65 +28 +36 душно 1010.0 995.6
09 15.07 В 1 10 км 8/6 1080 м
[Cu med, cong Ci fib]
+27.1 +16.3 52 +31 +37 душно 1009.7 995.5
12 15.07 СВ 3 10 км 9/8 800 м
[Cb calv Ac trans]
+25.5 +16.3 57 +29 +30 душно 1009.4 995.1
15 15.07 В 1 10 км в посл. час гроза {ливн. осадки} 9/4 600 м
[Cb calv Ac trans Ci fib]
+24.9 +18.2 66 +29 +30 душно 1009.3 994.9 +29.7 0.0
18 15.07 штиль 0 10 км {гроза, ливн. осадки} 9/0
[Ac trans Ci fib]
+20.7 +18.8 89 +25 +25 комфорт 1010.1 995.6

 

Местоположение метеостанции Иваново (Ивановская область, Россия): широта 56.95 долгота 40.97 высота над уровнем моря 126 м.

В архиве по умолчанию представлена погода в Иванове за последнюю неделю. Архивные данные за месяц целиком и за предыдущие месяцы, начиная с января 2011 года, Вы можете получить, выбрав интересующий диапазон дат из раскрывающегося списка и нажав кнопку "Ввод!".


*Определитесь, кто Вы:
робот инопланетянин человек

Внимание! Время в таблицах - всемирное. Для получения местного времени необходимо прибавить поправку, которая в Иванове равна 3 ч.

Смотрите также архив погоды в соседних городах и на ближайших метеорологических станциях:

Погода в Тейково (Ивановская область, Россия) (28 км)
Погода в Шуе (Ивановская область, Россия) (28 км)
Погода в Пешном (Атырауская область, Казахстан) (43 км)
Погода в Приволжске (Ивановская область, Россия) (51 км)
Погода в Плесе (Ивановская область, Россия) (63 км)
Погода в Вичуге (Ивановская область, Россия) (65 км)
Погода в Суздали (Владимирская область, Россия) (67 км)
Погода в Коврове (Владимирская область, Россия) (70 км)
Погода в Гаврилов-Яме (Ярославская область, Россия) (80 км)
Погода в Костроме (Костромская область, Россия) (88 км)

Пояснения к столбцам:

Ветер - указаны скорость ветра в м/с - средняя за 10 мин, порывы в срок и между сроками (в фигурных скобках) и направление, откуда дует ветер: С - северный, СВ - северо-восточный, В - восточный, ЮВ - юго-восточный, Ю - южный, ЮЗ - юго-западный, З - западный, СЗ - северо-западный.
Видимость - горизонтальная дальность видимости в метрах или километрах. При видимости от 1 до 10 км при отсутствии осадков обычно наблюдается дымка, при ухудшении видимости до 1 км и менее - туман. В сухую погоду видимость может ухудшаться дымом, пылью или мглою.
Явления - указаны атмосферные явления, наблюдавшиеся в срок или в последний час перед сроком; фигурными скобками обозначены явления, наблюдавшиеся между сроками (за 1-3 часа до срока); квадратными скобками обозначены град или гололедные отложения с указанием их диаметра в мм.
Облачность - указаны через наклонную черту общая и нижняя облачность в баллах и высота нижней границы облаков в метрах; квадратными скобками обозначены формы облаков: Ci - перистые, Cs - перисто-слоистые, Cc - перисто-кучевые, Ac - высококучевые, As - высокослоистые, Sc - слоисто-кучевые, Ns - слоисто-дождевые, Cu - кучевые, Cb - кучево-дождевые. Подробнее классификацию облаков см. в Атласе облаков (PDF).
T - Температура воздуха - температура, измеренная на высоте 2 м над землей.
Td - Температура точки росы - температура, при понижении до которой содержащийся в воздухе водяной пар достигнет насыщения.
f - Относительная влажность воздуха - влажноcть воздуха, измеренная на высоте 2 м над землей.
Te - Эффективная температура - температура, которую ощущает одетый по сезону человек в тени. Характеристика душности погоды. При расчете учитывается влияние влажности воздуха и скорости ветра на теплоощущения человека.
Tes - Эффективная температура на солнце - температура, которую ощущает человек, с поправкой на солнечный нагрев. Характеристика знойности погоды. Зависит от высоты солнца над горизонтом, облачности и скорости ветра. Ночью, в пасмурную погоду, а также при ветре 12 м/с и более поправка равна нулю.
P - Атмосферное давление - приведенное к уровню моря атмосферное давление.
Po - Атмосферное давление - измеренное на уровне метеостанции атмосферное давление.
Tmin - Минимальная температура - минимум температуры воздуха на высоте 2 м над землей.
Tmax - Максимальная температура - максимум температуры воздуха на высоте 2 м над землей.
R - Количество осадков - Количество выпавших осадков за период времени, мм. При наведении курсора мыши на число - период времени, за который выпало указанное количество осадков.
R24 - Количество осадков - Количество выпавших осадков за 24 часа, мм.
S - Снежный покров - Высота снежного покрова, см. При наведении курсора мыши на число - состояние снежного покрова и степень покрытия местности в баллах.